Caldwell, ID

1:03 PM MST on February 08, 2016 (GMT -0700)
Caldwell Industrial

Weather History for KEUL - October, 2012

Change the Weather History Date:

Saturday, October 6, 2012

  Actual Average (KBOI) Record (KBOI)
Temperature  
Mean Temperature 45 °F 57 °F  
Max Temperature 62 °F 70 °F 87 °F (1988)
Min Temperature 28 °F 44 °F 26 °F (1941)
Degree Days  
Heating Degree Days 20 9  
Month to date heating degree days 47  
Since 1 July heating degree days 168  
Cooling Degree Days 0 1  
Month to date cooling degree days 6  
Year to date cooling degree days 940  
Moisture  
Dew Point 20 °F    
Average Humidity 37    
Maximum Humidity 64    
Minimum Humidity 19    
Precipitation  
Precipitation 0.03 in 0.02 in 0.61 in (1920)
Month to date precipitation 0.12  
Year to date precipitation 8.20  
Snow  
Snow 0.00 in 0.00 in 0.00 in ()
Month to date snowfall 0.0  
Since 1 July snowfall 0.0  
Snow Depth -    
Sea Level Pressure  
Sea Level Pressure 30.24 in    
Wind  
Wind Speed 7 mph (East)    
Max Wind Speed 22 mph    
Max Gust Speed 28 mph    
Visibility 10 miles    
Events      
T = Trace of Precipitation, MM = Missing Value Source: NWS Daily Summary

Daily Weather History Graph

Daily Weather History Graph

Search for Another Location

Airport or City:

Trip Planner

Search our weather history database for the weather conditions in past years. The results will help you decide how hot, cold, wet, or windy it might be!

Date:

Astronomy

Oct. 06, 2012 Rise Set
Actual Time 7:50 AM MDT 7:17 PM MDT
Civil Twilight 7:21 AM MDT 7:46 PM MDT
Nautical Twilight 6:48 AM MDT 8:19 PM MDT
Astronomical Twilight 6:15 AM MDT 8:52 PM MDT
Moon 11:29 PM MDT (10/6) 1:57 PM MDT (10/6)
Length of Visible Light 12h 24m
Length of Day
11h 26m
Waning Gibbous, 65% of the Moon is Illuminated
Oct 6
Waning Gibbous
Oct 8
Last Quarter
Oct 15
New
Oct 21
First Quarter
Oct 29
Full

Hourly Weather History & Observations

Time (MDT) Temp. Windchill Dew Point Humidity Pressure Visibility Wind Dir Wind Speed Gust Speed Precip Events Conditions
12:15 AM 42.8 °F 39.3 °F 21.2 °F 42% 30.21 in 10.0 mi West 5.8 mph - N/A   Clear
12:35 AM 42.8 °F 41.1 °F 21.2 °F 42% 30.21 in 10.0 mi West 3.5 mph - N/A   Clear
12:55 AM 41.0 °F 35.8 °F 21.2 °F 45% 30.21 in 10.0 mi NW 8.1 mph - N/A   Clear
1:35 AM 37.4 °F 30.8 °F 19.4 °F 48% 30.21 in 10.0 mi WNW 9.2 mph - N/A   Clear
1:55 AM 39.2 °F 35.0 °F 19.4 °F 45% 30.22 in 10.0 mi West 5.8 mph - N/A   Clear
2:15 AM 39.2 °F 34.2 °F 19.4 °F 45% 30.23 in 10.0 mi West 6.9 mph - N/A   Clear
2:35 AM 37.4 °F 32.1 °F 19.4 °F 48% 30.23 in 10.0 mi WNW 6.9 mph - N/A   Clear
2:55 AM 37.4 °F 31.4 °F 19.4 °F 48% 30.23 in 10.0 mi WNW 8.1 mph - N/A   Clear
3:35 AM 37.4 °F 34.9 °F 19.4 °F 48% 30.23 in 10.0 mi West 3.5 mph - N/A   Clear
3:55 AM 37.4 °F - 19.4 °F 48% 30.23 in 10.0 mi Calm Calm - N/A   Clear
4:15 AM 35.6 °F 31.7 °F 19.4 °F 52% 30.24 in 10.0 mi NE 4.6 mph - N/A   Clear
4:35 AM 33.8 °F 27.0 °F 17.6 °F 52% 30.24 in 10.0 mi ENE 8.1 mph - N/A   Clear
4:55 AM 30.2 °F 25.4 °F 17.6 °F 60% 30.24 in 10.0 mi ENE 4.6 mph - N/A   Clear
5:15 AM 30.2 °F 24.3 °F 19.4 °F 64% 30.25 in 10.0 mi ENE 5.8 mph - N/A   Clear
5:35 AM 28.4 °F 22.2 °F 17.6 °F 64% 30.26 in 10.0 mi ENE 5.8 mph - N/A   Clear
5:55 AM 28.4 °F 21.2 °F 17.6 °F 64% 30.27 in 10.0 mi SE 6.9 mph - N/A   Clear
6:15 AM 28.4 °F 23.3 °F 17.6 °F 64% 30.28 in 10.0 mi SSW 4.6 mph - N/A   Clear
6:35 AM 30.2 °F 22.6 °F 19.4 °F 64% 30.28 in 10.0 mi South 8.1 mph - N/A   Clear
6:55 AM 35.6 °F 29.2 °F 21.2 °F 56% 30.28 in 10.0 mi SSW 8.1 mph - N/A   Clear
7:15 AM 37.4 °F 31.4 °F 21.2 °F 52% 30.28 in 10.0 mi SSW 8.1 mph - N/A   Clear
7:35 AM 37.4 °F 32.1 °F 19.4 °F 48% 30.29 in 10.0 mi SSE 6.9 mph - N/A   Clear
7:55 AM 32.0 °F 26.4 °F 17.6 °F 55% 30.29 in 10.0 mi East 5.8 mph - N/A   Clear
8:15 AM 33.8 °F 27.7 °F 17.6 °F 52% 30.29 in 9.0 mi SE 6.9 mph - N/A   Clear
8:35 AM 32.0 °F 26.4 °F 19.4 °F 60% 30.29 in 9.0 mi East 5.8 mph - N/A   Clear
8:55 AM 39.2 °F 34.2 °F 19.4 °F 45% 30.30 in 10.0 mi SE 6.9 mph - N/A   Clear
9:15 AM 41.0 °F 35.2 °F 19.4 °F 42% 30.30 in 10.0 mi SE 9.2 mph - N/A   Clear
9:35 AM 42.8 °F 37.0 °F 19.4 °F 39% 30.31 in 10.0 mi ESE 10.4 mph - N/A   Clear
9:55 AM 44.6 °F 39.2 °F 19.4 °F 37% 30.31 in 10.0 mi ESE 10.4 mph - N/A   Clear
10:15 AM 44.6 °F 39.2 °F 19.4 °F 37% 30.31 in 10.0 mi ESE 10.4 mph - N/A   Clear
10:35 AM 48.2 °F - 21.2 °F 34% 30.31 in 10.0 mi SE 13.8 mph - N/A   Clear
10:55 AM 51.8 °F - 19.4 °F 28% 30.31 in 9.0 mi SE 21.9 mph 27.6 mph N/A   Clear
11:15 AM 53.6 °F - 19.4 °F 26% 30.31 in 10.0 mi SE 21.9 mph 25.3 mph N/A   Clear
11:35 AM 53.6 °F - 19.4 °F 26% 30.31 in 10.0 mi SE 15.0 mph - N/A   Clear
11:55 AM 55.4 °F - 19.4 °F 25% 30.30 in 10.0 mi SE 18.4 mph 23.0 mph N/A   Clear
12:15 PM 55.4 °F - 19.4 °F 25% 30.30 in 10.0 mi SE 16.1 mph - N/A   Clear
12:35 PM 55.4 °F - 19.4 °F 25% 30.29 in 10.0 mi SE 13.8 mph 23.0 mph N/A   Clear
12:55 PM 57.2 °F - 19.4 °F 23% 30.28 in 10.0 mi ESE 16.1 mph 19.6 mph N/A   Clear
1:15 PM 57.2 °F - 19.4 °F 23% 30.28 in 10.0 mi SE 13.8 mph - N/A   Clear
1:35 PM 57.2 °F - 19.4 °F 23% 30.27 in 10.0 mi SE 5.8 mph - N/A   Clear
1:55 PM 57.2 °F - 19.4 °F 23% 30.26 in 10.0 mi East 11.5 mph 16.1 mph N/A   Clear
2:15 PM 57.2 °F - 19.4 °F 23% 30.25 in 10.0 mi ENE 5.8 mph - 0.03 in   Clear
2:35 PM 59.0 °F - 19.4 °F 22% 30.24 in 10.0 mi SSE 8.1 mph - 0.03 in   Clear
2:55 PM 59.0 °F - 19.4 °F 22% 30.23 in 9.0 mi East 3.5 mph - 0.03 in   Clear
3:15 PM 59.0 °F - 19.4 °F 22% 30.22 in 10.0 mi SE 3.5 mph - N/A   Clear
3:35 PM 60.8 °F - 19.4 °F 20% 30.22 in 10.0 mi West 3.5 mph - N/A   Clear
3:55 PM 60.8 °F - 19.4 °F 20% 30.21 in 10.0 mi East 5.8 mph - N/A   Clear
4:15 PM 62.6 °F - 19.4 °F 19% 30.20 in 10.0 mi North 8.1 mph - N/A   Clear
4:35 PM 62.6 °F - 19.4 °F 19% 30.20 in 9.0 mi NNE 5.8 mph - N/A   Clear
5:15 PM 62.6 °F - 19.4 °F 19% 30.19 in 10.0 mi North 5.8 mph - N/A   Clear
5:35 PM 60.8 °F - 19.4 °F 20% 30.19 in 9.0 mi North 5.8 mph - N/A   Clear
5:55 PM 60.8 °F - 19.4 °F 20% 30.18 in 9.0 mi North 8.1 mph - N/A   Clear
6:15 PM 60.8 °F - 17.6 °F 19% 30.18 in 10.0 mi North 5.8 mph - N/A   Clear
6:35 PM 59.0 °F - 17.6 °F 20% 30.18 in 10.0 mi North 6.9 mph - N/A   Clear
6:55 PM 57.2 °F - 17.6 °F 21% 30.17 in 10.0 mi NNW 4.6 mph - N/A   Clear
7:15 PM 55.4 °F - 19.4 °F 25% 30.17 in 10.0 mi NNW 4.6 mph - N/A   Clear
7:35 PM 55.4 °F - 19.4 °F 25% 30.17 in 6.0 mi North 4.6 mph - N/A   Clear
7:55 PM 53.6 °F - 19.4 °F 26% 30.17 in 10.0 mi North 3.5 mph - N/A   Clear
8:15 PM 51.8 °F - 19.4 °F 28% 30.18 in 10.0 mi North 3.5 mph - N/A   Clear
8:35 PM 51.8 °F - 21.2 °F 30% 30.17 in 10.0 mi Calm Calm - N/A   Clear
8:55 PM 48.2 °F - 21.2 °F 34% 30.17 in 10.0 mi Calm Calm - N/A   Clear
9:15 PM 48.2 °F - 23.0 °F 37% 30.17 in 10.0 mi WSW 3.5 mph - N/A   Clear
9:35 PM 46.4 °F - 23.0 °F 40% 30.17 in 10.0 mi Calm Calm - N/A   Clear
9:55 PM 44.6 °F - 21.2 °F 39% 30.18 in 10.0 mi Calm Calm - N/A   Clear
10:15 PM 42.8 °F 41.1 °F 19.4 °F 39% 30.18 in 10.0 mi SSE 3.5 mph - N/A   Clear
10:35 PM 42.8 °F - 21.2 °F 42% 30.17 in 10.0 mi Calm Calm - N/A   Clear
10:55 PM 42.8 °F - 21.2 °F 42% 30.17 in 10.0 mi Calm Calm - N/A   Clear
11:35 PM 37.4 °F 34.9 °F 21.2 °F 52% 30.18 in 10.0 mi East 3.5 mph - N/A   Clear
11:55 PM 35.6 °F 31.7 °F 21.2 °F 56% 30.18 in 10.0 mi East 4.6 mph - N/A   Clear